Regional Weather Roundup
Issued by NWS Binghamton, NY

Home | Current Version | Previous Version | Text Only | Print | Product List | Glossary On
Versions: 1 2 3 4 5 6 7 8 9 10 11 12 13 14 15 16 17 18 19 20 21 22 23 24 25 26 27 28
000
ASUS41 KBGM 311010
RWRBGM

REGIONAL WEATHER ROUNDUP
NATIONAL WEATHER SERVICE BINGHAMTON NY
600 AM EDT SUN JUL 31 2016

Note: "fair" indicates few or no clouds below 12,000 feet with no
significant weather and/or obstructions to visibility.

* = Station(s) that does not report precipitation, such as rain,
snow, etc, also no thunder or fog.

NYZ009-015>018-022>025-036-037-044>046-055>057-062-311100
...Central New York...

CITY           SKY/WX    TMP DP  RH WIND       PRES   REMARKS
Binghamton     FOG       64  64 100 E7        30.03R VSB 3/4
Cortland       DRIZZLE   64  64 100 NE3       30.04R
Dansville      CLOUDY    67  64  90 CALM      30.01R
Elmira         CLOUDY    69  65  86 CALM      30.00R FOG
Ithaca         CLOUDY    66  65  96 E6        30.03R
Hamilton       CLOUDY    66  63  88 CALM      30.05S
Hornell        CLOUDY    64  63  94 CALM      30.05S
Monticello     CLOUDY    64  64 100 NE5       30.06R
Norwich        RAIN      64  64 100 CALM      30.05R
Penn Yan       CLOUDY    69  65  86 CALM      30.02R
Rome           CLOUDY    64  63  96 SE8       30.05R
Sidney         RAIN      66  66 100 CALM      30.03S
Syracuse       CLOUDY    66  62  87 E7        30.01R
$$

PAZ038>040-043-044-047-048-072-311100
...Northeast Pennsylvania...

CITY           SKY/WX    TMP DP  RH WIND       PRES   REMARKS
Hazleton       DRIZZLE   70  68  94 CALM      30.05R
Scranton       CLOUDY    70  69  97 NE5       30.00R
$$
&&
KEY
WCI = Wind Chill Index
VSB = Visibility
HX  = Heat Index
$$




USA.gov is the U.S. government's official web portal to all federal, state and local government web resources and services.